sat.trackr.live / text

‹ back to catalog

STARLINK-35116

NORAD 66078 · 2025-235W

PAYLOAD ACTIVE UNKNOWN

§ Identity

Operator
Country
US
Launch date
2025-10-19
Launch site
AFETR
Launch vehicle
Mass (kg)
RCS (m²)

Purposes: comms

External: N2YO · Heavens-Above · Gunter

§ Orbital elements

Epoch: 2026-09-20T03:50:57.929280Z

Period
93.85 min
Inclination
53.1591°
Eccentricity
0.0000911
Mean motion
15.34410909 rev/d
Perigee alt
462.0 km
Apogee alt
463.3 km
Semi-major
6,840.8 km
B*
2.8251e-4
RAAN
59.2860°
Arg perigee
59.6872°
Mean anomaly
300.4221°
Rev number
5,273

§ Raw data

STARLINK-351161 66078U 25235W   26263.16039270  .00009184  00000+0  28251-3 0  99932 66078  53.1591  59.2860 0000911  59.6872 300.4221 15.34410909 52736

JSON: /api/v1/satellites/66078 · /tle

For live sub-satellite position, see the globe view (requires WebGL).

§ Visibility from observer

Set your observer location to see the next 7 days of passes ≥ 10°. The values pass through the URL so the page stays shareable.

No JS? Fill the form by hand. The geolocation button needs JavaScript.